Location: Plzen
(49.7500°N, 13.3670°E)
Time: 04:53:15
(UTC+02:00)

ISS - Pass Details

Date: 25 May 2021
Orbit: 417 x 422 km, 51.6° (Epoch: 13 June)

Event Time Altitude Azimuth Distance (km) Brightness Sun altitude
Rises 22:11:51 0° 285° (WNW) 2,366 1.1 -9.6°
Reaches altitude 10° 22:13:57 10° 287° (WNW) 1,502 0.0 -9.8°
Maximum altitude 22:17:19 80° 14° (NNE) 431 -3.7 -10.2°
Enters shadow 22:20:39 10° 103° (ESE) 1,483 -1.4 -10.5°
